Weather in Balasheyka

Russia / Samara Oblast     53°16′49″N   48°05′16″E
temp.,
°C
wind,
m/s
gust,
m/s
humid.,
%
clouds,
%
prec.,
mm/h
press.,
hPa
HPBL,
m
19 january, wed
wed1901:00−2ssw71491100 0.0 1013586
04:00−2s51292100 0.1 1013552
07:00−3s4994100 0.2 1013347
10:00−3s4996100 0.5 1014384
13:00−2s51296100 0.4 1014608
16:000sw6983100 0.5 1015688
19:00−5sw4895100 0.0 1016143
22:00−4sw2591100 0.1 1018151
20 january, thu
thu2001:00−10ssw119299 0.0 101810
04:00−14sse119833 0.0 101910
07:00−14wsw009995 0.0 10209
10:00−13ese119999 0.1 102010
13:00−6sse239694 0.1 1019162
16:00−7se239885 0.2 101969
19:00−13se2210099 0.1 102013
22:00−10se2498100 0.1 1020104
21 january, fri
fri2101:00−11se239898 0.1 102082
04:00−16ese2210095 0.1 102010
07:00−16e119989 0.1 102010
10:00−17ese22100100 0.1 102143
13:00−11se369597 0.1 1020218
16:00−11ese359783 0.1 1019151
19:00−13ese359998 0.1 101990
22:00−13ese3698100 0.1 1019123
22 january, sat
sat2201:00−12ese4996100 0.1 1018230
04:00−9se61395100 0.1 1017435
07:00−8se61395100 0.8 1017507
10:00−7se51095100 1.4 1018476
13:00−5se4896100 1.1 1019441
16:00−5se3696100 1.8 1020352
19:00−6ese3797100 0.4 1021262
22:00−4ese4997100 1.3 1022393
23 january, sun
sun2301:00−4sse61297100 1.5 1022556
04:00−4sse61296100 3.4 1024585
07:00−5sse51296100 1.4 1025561
10:00−6se51094100 1.9 1027418
13:00−6se4793100 0.1 1028355
16:00−6ese4694100 0.1 1030305
19:00−7ese4893100 0.1 1031287
22:00−9e3894100 0.1 1032209